SCP
0 0 0 0 0 0 0 0 0 0 0 0 0 0 0 0 0 0 0 0 0 0 0 0 0 0 0 0 0 0 0 0 0 0 0 0 0 0 0 0 0 0 0
0 0 0 0 0 0 0 0 0 0 0 0 0 0 0 0 0 0 0 0 0 0 0 0 0 0 0 0 0 0 0 0 0 0 0 0 0 0 0 0 0 0 0
0 0 0 0 0 0 0 0 0 0 0 0 0 0 0 0 0 0 0 0 0 0 0 0 0 0 0 0 0 0 0 0 0 0 0 0 0 0 0 0 0 0 0
0 0 0 0 0 0 0 0 0 0 0 0 0 0 0 0 0 0 0 0 0 0 0 0 0 0 0 0 0 0 0 0 0 0 0 0 0 0 0 0 0 0 0
0 0 0 0 0 -0 0 0 0 0 0 0 0 0 0 0 0 0 0 0 0 0 0 0 0 0 0 0 0 0 0 0 0 0 0 0 0 0 0 0 0 0 0
0 0 0 0 0 -0 0 0 0 0 0 0 0 0 0 0 0 0 0 0 0 0 0 0 0 0 0 0 0 0 0 0 0 0 0 0 0 0 0 0 0 0 0
0 0 0 0 0 -0 0 0 0 0 0 0 0 0 0 0 0 0 0 0 0 0 0 0 0 0 0 0 0 0 0 0 0 0 0 0 0 0 0 0 0 0 0
0 0 0 0 -0 -0 -0 0 0 0 0 0 0 0 0 0 0 0 0 0 0 0 0 0 0 0 0 0 0 0 0 0 0 0 0 0 0 0 0 0 0 0 0
-0 0 0 -0 -0 -0 -0 0 0 0 0 0 0 0 0 0 0 0 0 0 0 0 0 0 0 0 0 0 0 0 0 0 0 0 0 0 0 0 0 0 0 0 0
0 0 0 0 -0 -0 -0 0 0 0 0 0 0 0 0 0 0 0 0 0 0 0 0 0 0 0 0 0 0 0 0 0 0 0 0 0 0 0 0 0 0 0 0
-0 -0 0 0 0 -0 -0 0 0 0 0 0 0 0 0 0 0 0 0 0 0 0 0 0 0 0 0 0 0 0 0 0 0 0 0 0 0 0 0 0 0 0 0
0 0 0 0 0 0 0 0 0 0 0 0 0 0 0 0 0 0 0 0 0 0 0 0 0 0 0 0 0 0 0 0 0 0 0 0 0 0 0 0 0 0 0
0 0 0 0 0 0 0 0 0 0 -0 0 0 0 0 0 0 0 0 0 0 0 0 0 0 0 0 0 0 0 0 0 0 0 0 0 0 0 0 0 0 0 0
0 0 0 0 0 0 0 0 0 0 0 0 0 0 0 0 0 0 0 0 0 0 0 0 0 0 0 0 0 0 0 0 0 0 0 0 0 0 0 0 0 0 0
0 0 0 0 0 0 0 0 0 0 0 0 0 0 0 0 0 0 0 0 0 0 0 0 0 0 0 0 0 0 0 0 0 0 0 0 0 0 0 0 0 0 0
0 0 0 0 0 0 0 0 0 0 0 0 0 0 0 0 0 0 0 0 0 0 0 0 0 0 0 0 0 0 0 0 0 0 0 0 0 0 0 0 0 0 0
0 0 0 0 0 0 0 0 0 0 0 0 0 0 0 0 0 0 0 0 0 0 0 0 0 0 0 0 0 0 0 0 0 0 0 0 0 0 0 0 0 0 0
0 0 0 0 0 0 0 0 0 0 0 0 0 0 0 0 0 0 0 0 0 0 0 0 0 0 0 0 0 0 0 0 0 0 0 0 0 0 0 0 0 0 0
-0 -0 -0 -0 -0 -0 -0 0 0 0 0 0 0 0 0 0 0 0 0 0 0 0 0 0 0 0 0 0 0 0 0 0 0 0 0 0 0 0 0 0 0 0 0
-0 -0 -0 -0 -0 -0 -0 -0 -0 -0 0 0 0 0 0 0 0 0 0 0 0 0 0 0 0 0 0 0 0 0 0 0 0 0 0 0 0 0 0 0 0 0 0
-0 -0 0 -0 -0 -0 -0 -0 -0 -0 -0 -0 0 0 0 0 0 0 0 0 0 0 0 0 0 0 0 0 0 0 0 0 0 0 0 0 0 0 0 0 0 0 0
0 0 -0 -0 -0 -0 -0 -0 -0 -0 0 -0 -0 -0 0 0 0 0 0 0 0 0 0 0 0 0 0 0 0 0 0 0 0 0 0 0 0 0 0 0 0 0 0
0 0 0 -0 -0 -0 -0 -0 -0 -0 -0 -0 -0 -0 -0 -0 0 0 0 0 0 0 0 0 0 0 0 0 0 0 0 0 0 0 0 0 0 0 0 0 0 0 0
0 0 0 0 0 -0 -0 -0 -0 -0 -0 -0 -0 -0 -0 -0 0 0 0 0 0 0 0 0 0 0 0 0 0 0 0 0 0 0 0 0 0 0 0 0 0 0 0
0 0 0 0 0 -0 -0 -0 -0 -0 -0 -0 -0 -0 -0 0 0 0 0 0 0 0 0 0 0 0 0 0 0 0 0 0 0 0 0 0 0 0 0 0 0 0 0
0 0 0 0 0 0 -0 -0 -0 -0 -0 -0 -0 -0 -0 0 0 0 0 0 0 0 0 0 0 0 0 0 0 0 0 0 0 0 0 0 0 0 0 0 0 0 0
Wind_Speed_500mb
103 97 94 90 83 84 84 87 87 86 92 94 97 101 104 100 97 94 92 90 86 83 79 74 69 66 61 51 47 44 39 33 28 24 20 16 15 13 18 16 4 8 5
89 86 80 75 70 67 67 72 80 87 90 93 97 102 105 105 100 99 99 96 94 89 84 80 76 70 64 60 55 50 44 39 33 26 21 12 15 24 27 27 17 16 7
85 83 77 70 69 68 66 65 65 77 89 94 100 106 108 105 106 109 106 102 97 92 89 85 80 74 69 65 59 54 48 43 39 32 22 11 13 17 22 29 25 21 14
67 64 62 64 65 65 56 54 59 67 74 93 104 108 114 117 115 111 103 104 102 98 95 89 83 78 74 71 64 59 55 51 45 37 33 31 28 19 13 23 28 22 27
45 45 51 56 62 70 66 62 56 65 77 90 97 107 112 113 113 110 106 105 104 103 100 95 90 86 81 75 71 67 63 58 52 46 38 35 32 32 33 26 27 26 29
40 38 42 49 63 86 80 59 64 66 79 87 94 98 107 112 115 114 106 104 105 104 102 98 94 89 85 81 76 70 68 63 56 51 46 41 37 35 35 33 34 32 32
29 36 45 59 71 90 84 66 61 70 73 82 90 95 100 105 112 110 105 102 101 105 104 101 99 96 88 82 77 75 72 68 62 56 51 47 44 42 40 38 37 36 35
32 34 55 73 81 80 81 81 61 56 61 71 79 86 93 97 101 105 106 101 95 91 94 97 98 93 90 85 82 79 75 71 67 62 58 53 49 46 44 40 36 35 35
42 82 98 96 72 78 80 90 68 54 54 60 65 72 80 91 96 101 101 101 93 84 86 89 93 95 92 88 84 83 81 76 72 68 63 58 55 51 47 42 40 38 31
75 84 90 76 69 69 72 71 60 49 42 49 54 63 71 80 92 96 96 98 91 88 85 84 85 91 92 91 88 86 83 80 76 73 69 65 60 54 49 45 43 41 39
81 77 64 58 58 53 51 58 50 47 64 57 54 58 67 72 81 91 99 97 93 91 89 88 86 88 92 94 92 91 87 84 81 79 75 70 63 58 52 48 45 44 45
52 54 51 53 55 54 49 47 51 55 54 62 73 73 68 70 77 83 90 95 95 96 96 93 90 91 93 93 96 97 93 91 88 85 80 74 69 62 56 51 48 45 44
61 61 59 61 65 66 64 54 52 53 50 54 62 71 76 81 80 82 88 92 97 97 100 99 98 97 94 97 98 98 97 94 90 87 83 77 73 65 61 56 50 46 45
62 67 73 70 71 75 77 74 63 58 53 50 54 62 65 73 79 84 87 87 94 96 102 102 100 99 99 99 99 103 100 97 94 89 84 78 73 66 62 58 52 48 44
61 64 72 79 90 87 88 86 82 78 72 62 52 61 62 62 73 83 85 89 92 95 94 95 99 101 103 106 105 105 100 101 99 93 87 82 76 70 66 61 54 46 44
70 70 74 79 87 90 94 92 87 85 84 78 67 58 56 64 66 72 80 85 91 93 93 94 99 102 108 108 103 103 104 103 102 98 92 85 78 74 69 61 54 48 44
59 60 73 65 78 84 84 89 90 90 85 83 79 67 58 55 63 65 72 79 82 89 93 96 103 100 102 108 107 107 104 103 103 99 93 86 81 74 69 62 57 51 47
61 60 70 72 77 80 83 85 83 83 91 84 84 81 71 59 52 52 67 74 72 81 87 94 105 102 99 107 107 107 104 102 101 100 94 86 81 77 71 64 58 48 41
57 61 67 67 73 79 83 89 86 86 83 83 83 83 82 75 59 51 55 64 66 71 82 89 98 99 94 101 102 107 107 105 105 97 90 87 82 74 71 67 57 48 39
68 68 70 72 73 78 82 89 92 85 88 89 79 76 79 81 75 57 50 52 61 70 69 78 87 86 90 94 98 110 103 98 99 98 90 86 79 78 76 67 56 46 37
71 71 72 75 77 79 86 92 93 94 92 98 97 79 70 70 71 63 47 44 49 58 67 65 75 78 83 81 96 106 100 100 97 95 94 90 85 80 72 64 54 41 39
81 79 81 86 87 87 91 97 99 102 103 98 91 89 73 65 63 64 55 44 45 48 59 63 66 68 68 73 87 92 93 91 94 98 91 88 83 76 66 58 48 41 43
85 86 86 93 96 101 97 100 108 109 108 107 103 93 87 75 63 64 60 53 52 48 53 59 64 66 64 69 81 80 82 82 82 85 83 82 80 70 58 52 50 47 38
93 89 91 99 110 110 109 112 112 107 110 114 111 101 92 86 74 67 62 60 61 60 61 56 67 67 67 71 85 87 82 73 76 69 70 70 70 64 63 59 48 43 39
99 87 89 101 117 115 116 113 112 105 107 113 112 107 94 85 81 76 67 65 68 60 75 70 67 74 71 80 94 96 99 91 80 75 76 72 72 70 61 52 48 43 35
96 91 97 98 117 115 122 120 111 106 101 104 108 101 91 88 74 74 76 69 64 63 69 72 71 76 67 67 81 94 95 90 81 79 91 91 81 71 60 55 49 41 32
Wind_Direction_500mb
278 280 280 281 281 276 273 268 262 258 248 241 239 239 240 237 235 234 233 231 231 230 230 230 230 231 233 235 237 240 246 251 257 267 273 280 276 225 208 204 285 260 234
286 289 291 291 289 286 282 274 264 253 251 245 242 240 240 238 238 238 234 230 229 228 229 230 230 231 232 232 236 241 244 248 254 257 268 258 238 237 224 225 269 219 225
286 295 300 305 301 299 299 289 277 260 251 245 239 236 235 237 235 234 234 232 231 229 229 229 229 230 231 234 237 240 242 245 246 247 241 221 220 200 209 246 221 238 240
289 297 315 324 323 320 314 295 281 265 254 247 243 240 236 233 234 236 235 232 231 230 230 229 230 231 232 232 234 236 239 240 242 244 244 244 241 225 231 227 246 229 273
308 333 345 345 343 331 315 304 290 270 257 247 244 243 239 239 239 235 232 231 229 231 230 228 228 230 230 231 232 233 235 239 241 241 242 243 245 245 241 252 249 251 268
349 352 354 1 5 355 334 298 284 278 261 251 245 242 241 239 236 233 234 231 229 229 229 230 229 230 230 231 232 233 234 235 237 238 242 244 243 249 250 252 263 269 278
341 344 349 349 345 345 333 316 284 271 263 252 248 245 242 239 240 239 235 233 229 227 228 230 229 230 231 232 232 233 235 236 237 238 241 242 246 251 253 256 262 271 282
327 344 334 329 329 330 334 323 307 283 267 258 252 248 246 243 242 241 240 239 237 235 232 231 232 233 232 231 232 234 235 236 236 237 239 240 244 248 251 252 256 264 276
327 324 326 324 328 327 327 326 314 304 287 271 263 257 252 248 243 240 239 241 241 238 237 236 233 234 233 232 232 234 235 235 236 237 238 241 243 245 249 253 258 262 264
317 312 313 311 313 328 332 329 321 307 302 292 277 266 258 252 249 243 241 242 241 240 237 237 235 234 234 233 231 234 234 234 235 236 237 239 241 245 249 254 258 263 265
314 326 332 334 331 334 335 333 327 324 327 307 294 279 267 259 253 248 245 243 242 241 239 235 234 232 232 230 232 234 234 234 234 234 236 238 241 244 247 252 258 264 269
3 2 1 356 352 350 344 336 325 316 316 313 300 285 275 265 258 254 250 248 245 244 243 240 235 234 231 230 231 232 232 231 232 233 234 236 238 241 245 249 253 258 266
358 356 358 356 356 355 354 348 340 334 316 302 301 297 286 274 266 258 254 250 247 246 245 243 240 236 232 232 231 232 233 233 233 234 234 235 237 238 242 246 249 254 259
9 2 357 352 351 352 352 351 347 349 339 319 300 292 291 288 282 275 268 261 254 250 248 245 243 242 238 235 232 231 230 232 233 233 232 233 235 238 241 243 245 249 258
6 357 352 346 345 345 345 344 345 346 346 337 318 303 294 286 282 277 273 269 262 257 252 249 246 244 241 237 233 231 231 231 231 229 229 231 232 235 237 239 243 246 255
347 347 346 346 337 340 341 340 340 342 344 344 337 324 296 281 277 276 271 268 264 257 252 251 247 245 243 240 237 234 232 231 230 228 227 228 229 231 235 238 238 244 256
334 333 337 330 332 335 335 335 335 336 337 341 341 340 327 296 275 273 270 266 266 263 256 250 246 243 242 242 235 233 230 230 229 227 226 226 227 228 230 232 235 240 256
333 329 329 331 331 329 329 328 333 329 330 332 329 338 340 328 306 282 272 266 262 262 259 254 250 243 247 241 235 233 230 227 227 226 225 226 227 227 227 227 229 236 244
322 321 323 325 326 327 327 327 327 330 327 323 324 322 332 335 327 309 289 274 263 256 253 250 248 246 244 238 234 233 230 224 223 222 223 223 223 223 226 225 227 230 236
319 320 319 320 323 324 325 325 326 325 323 320 320 316 315 319 329 322 304 287 269 260 253 248 246 243 240 235 231 231 227 224 219 218 220 222 222 222 222 224 227 230 236
310 311 311 313 318 322 324 324 323 319 319 314 314 313 308 304 308 314 312 300 281 265 255 247 247 243 239 231 229 231 228 224 220 219 220 219 219 219 221 224 227 229 234
309 309 309 310 313 315 317 317 315 316 316 314 311 311 309 304 299 299 299 295 280 272 259 250 244 240 235 225 223 218 228 222 222 222 220 220 218 216 216 219 223 224 232
304 305 306 306 307 310 312 311 314 314 313 311 308 305 306 301 296 291 289 287 278 266 263 254 246 238 230 220 212 205 220 218 220 224 223 218 214 210 211 211 215 222 230
304 305 304 302 304 306 306 306 308 309 307 305 304 305 302 299 290 284 283 278 273 272 261 254 244 238 226 214 211 202 214 222 218 218 221 213 207 206 208 208 212 222 227
300 300 298 298 299 302 302 302 303 303 301 300 300 300 298 295 289 283 277 277 272 270 269 263 255 243 231 221 212 205 208 216 215 203 204 205 207 206 206 206 214 219 227
299 295 295 295 297 298 299 300 300 301 300 296 295 295 294 290 283 281 282 271 273 270 268 266 262 258 252 241 220 213 209 216 216 201 201 202 205 210 207 208 212 216 224
Wind_Speed_850mb
103 97 94 90 83 84 84 87 87 86 92 94 97 101 104 100 97 94 92 90 86 83 79 74 69 66 61 51 47 44 39 33 28 24 20 16 15 13 18 16 4 8 5
89 86 80 75 70 67 67 72 80 87 90 93 97 102 105 105 100 99 99 96 94 89 84 80 76 70 64 60 55 50 44 39 33 26 21 12 15 24 27 27 17 16 7
85 83 77 70 69 68 66 65 65 77 89 94 100 106 108 105 106 109 106 102 97 92 89 85 80 74 69 65 59 54 48 43 39 32 22 11 13 17 22 29 25 21 14
67 64 62 64 65 65 56 54 59 67 74 93 104 108 114 117 115 111 103 104 102 98 95 89 83 78 74 71 64 59 55 51 45 37 33 31 28 19 13 23 28 22 27
45 45 51 56 62 70 66 62 56 65 77 90 97 107 112 113 113 110 106 105 104 103 100 95 90 86 81 75 71 67 63 58 52 46 38 35 32 32 33 26 27 26 29
40 38 42 49 63 86 80 59 64 66 79 87 94 98 107 112 115 114 106 104 105 104 102 98 94 89 85 81 76 70 68 63 56 51 46 41 37 35 35 33 34 32 32
29 36 45 59 71 90 84 66 61 70 73 82 90 95 100 105 112 110 105 102 101 105 104 101 99 96 88 82 77 75 72 68 62 56 51 47 44 42 40 38 37 36 35
32 34 55 73 81 80 81 81 61 56 61 71 79 86 93 97 101 105 106 101 95 91 94 97 98 93 90 85 82 79 75 71 67 62 58 53 49 46 44 40 36 35 35
42 82 98 96 72 78 80 90 68 54 54 60 65 72 80 91 96 101 101 101 93 84 86 89 93 95 92 88 84 83 81 76 72 68 63 58 55 51 47 42 40 38 31
75 84 90 76 69 69 72 71 60 49 42 49 54 63 71 80 92 96 96 98 91 88 85 84 85 91 92 91 88 86 83 80 76 73 69 65 60 54 49 45 43 41 39
81 77 64 58 58 53 51 58 50 47 64 57 54 58 67 72 81 91 99 97 93 91 89 88 86 88 92 94 92 91 87 84 81 79 75 70 63 58 52 48 45 44 45
52 54 51 53 55 54 49 47 51 55 54 62 73 73 68 70 77 83 90 95 95 96 96 93 90 91 93 93 96 97 93 91 88 85 80 74 69 62 56 51 48 45 44
61 61 59 61 65 66 64 54 52 53 50 54 62 71 76 81 80 82 88 92 97 97 100 99 98 97 94 97 98 98 97 94 90 87 83 77 73 65 61 56 50 46 45
62 67 73 70 71 75 77 74 63 58 53 50 54 62 65 73 79 84 87 87 94 96 102 102 100 99 99 99 99 103 100 97 94 89 84 78 73 66 62 58 52 48 44
61 64 72 79 90 87 88 86 82 78 72 62 52 61 62 62 73 83 85 89 92 95 94 95 99 101 103 106 105 105 100 101 99 93 87 82 76 70 66 61 54 46 44
70 70 74 79 87 90 94 92 87 85 84 78 67 58 56 64 66 72 80 85 91 93 93 94 99 102 108 108 103 103 104 103 102 98 92 85 78 74 69 61 54 48 44
59 60 73 65 78 84 84 89 90 90 85 83 79 67 58 55 63 65 72 79 82 89 93 96 103 100 102 108 107 107 104 103 103 99 93 86 81 74 69 62 57 51 47
61 60 70 72 77 80 83 85 83 83 91 84 84 81 71 59 52 52 67 74 72 81 87 94 105 102 99 107 107 107 104 102 101 100 94 86 81 77 71 64 58 48 41
57 61 67 67 73 79 83 89 86 86 83 83 83 83 82 75 59 51 55 64 66 71 82 89 98 99 94 101 102 107 107 105 105 97 90 87 82 74 71 67 57 48 39
68 68 70 72 73 78 82 89 92 85 88 89 79 76 79 81 75 57 50 52 61 70 69 78 87 86 90 94 98 110 103 98 99 98 90 86 79 78 76 67 56 46 37
71 71 72 75 77 79 86 92 93 94 92 98 97 79 70 70 71 63 47 44 49 58 67 65 75 78 83 81 96 106 100 100 97 95 94 90 85 80 72 64 54 41 39
81 79 81 86 87 87 91 97 99 102 103 98 91 89 73 65 63 64 55 44 45 48 59 63 66 68 68 73 87 92 93 91 94 98 91 88 83 76 66 58 48 41 43
85 86 86 93 96 101 97 100 108 109 108 107 103 93 87 75 63 64 60 53 52 48 53 59 64 66 64 69 81 80 82 82 82 85 83 82 80 70 58 52 50 47 38
93 89 91 99 110 110 109 112 112 107 110 114 111 101 92 86 74 67 62 60 61 60 61 56 67 67 67 71 85 87 82 73 76 69 70 70 70 64 63 59 48 43 39
99 87 89 101 117 115 116 113 112 105 107 113 112 107 94 85 81 76 67 65 68 60 75 70 67 74 71 80 94 96 99 91 80 75 76 72 72 70 61 52 48 43 35
96 91 97 98 117 115 122 120 111 106 101 104 108 101 91 88 74 74 76 69 64 63 69 72 71 76 67 67 81 94 95 90 81 79 91 91 81 71 60 55 49 41 32
Wind_Direction_850mb
278 280 280 281 281 276 273 268 262 258 248 241 239 239 240 237 235 234 233 231 231 230 230 230 230 231 233 235 237 240 246 251 257 267 273 280 276 225 208 204 285 260 234
286 289 291 291 289 286 282 274 264 253 251 245 242 240 240 238 238 238 234 230 229 228 229 230 230 231 232 232 236 241 244 248 254 257 268 258 238 237 224 225 269 219 225
286 295 300 305 301 299 299 289 277 260 251 245 239 236 235 237 235 234 234 232 231 229 229 229 229 230 231 234 237 240 242 245 246 247 241 221 220 200 209 246 221 238 240
289 297 315 324 323 320 314 295 281 265 254 247 243 240 236 233 234 236 235 232 231 230 230 229 230 231 232 232 234 236 239 240 242 244 244 244 241 225 231 227 246 229 273
308 333 345 345 343 331 315 304 290 270 257 247 244 243 239 239 239 235 232 231 229 231 230 228 228 230 230 231 232 233 235 239 241 241 242 243 245 245 241 252 249 251 268
349 352 354 1 5 355 334 298 284 278 261 251 245 242 241 239 236 233 234 231 229 229 229 230 229 230 230 231 232 233 234 235 237 238 242 244 243 249 250 252 263 269 278
341 344 349 349 345 345 333 316 284 271 263 252 248 245 242 239 240 239 235 233 229 227 228 230 229 230 231 232 232 233 235 236 237 238 241 242 246 251 253 256 262 271 282
327 344 334 329 329 330 334 323 307 283 267 258 252 248 246 243 242 241 240 239 237 235 232 231 232 233 232 231 232 234 235 236 236 237 239 240 244 248 251 252 256 264 276
327 324 326 324 328 327 327 326 314 304 287 271 263 257 252 248 243 240 239 241 241 238 237 236 233 234 233 232 232 234 235 235 236 237 238 241 243 245 249 253 258 262 264
317 312 313 311 313 328 332 329 321 307 302 292 277 266 258 252 249 243 241 242 241 240 237 237 235 234 234 233 231 234 234 234 235 236 237 239 241 245 249 254 258 263 265
314 326 332 334 331 334 335 333 327 324 327 307 294 279 267 259 253 248 245 243 242 241 239 235 234 232 232 230 232 234 234 234 234 234 236 238 241 244 247 252 258 264 269
3 2 1 356 352 350 344 336 325 316 316 313 300 285 275 265 258 254 250 248 245 244 243 240 235 234 231 230 231 232 232 231 232 233 234 236 238 241 245 249 253 258 266
358 356 358 356 356 355 354 348 340 334 316 302 301 297 286 274 266 258 254 250 247 246 245 243 240 236 232 232 231 232 233 233 233 234 234 235 237 238 242 246 249 254 259
9 2 357 352 351 352 352 351 347 349 339 319 300 292 291 288 282 275 268 261 254 250 248 245 243 242 238 235 232 231 230 232 233 233 232 233 235 238 241 243 245 249 258
6 357 352 346 345 345 345 344 345 346 346 337 318 303 294 286 282 277 273 269 262 257 252 249 246 244 241 237 233 231 231 231 231 229 229 231 232 235 237 239 243 246 255
347 347 346 346 337 340 341 340 340 342 344 344 337 324 296 281 277 276 271 268 264 257 252 251 247 245 243 240 237 234 232 231 230 228 227 228 229 231 235 238 238 244 256
334 333 337 330 332 335 335 335 335 336 337 341 341 340 327 296 275 273 270 266 266 263 256 250 246 243 242 242 235 233 230 230 229 227 226 226 227 228 230 232 235 240 256
333 329 329 331 331 329 329 328 333 329 330 332 329 338 340 328 306 282 272 266 262 262 259 254 250 243 247 241 235 233 230 227 227 226 225 226 227 227 227 227 229 236 244
322 321 323 325 326 327 327 327 327 330 327 323 324 322 332 335 327 309 289 274 263 256 253 250 248 246 244 238 234 233 230 224 223 222 223 223 223 223 226 225 227 230 236
319 320 319 320 323 324 325 325 326 325 323 320 320 316 315 319 329 322 304 287 269 260 253 248 246 243 240 235 231 231 227 224 219 218 220 222 222 222 222 224 227 230 236
310 311 311 313 318 322 324 324 323 319 319 314 314 313 308 304 308 314 312 300 281 265 255 247 247 243 239 231 229 231 228 224 220 219 220 219 219 219 221 224 227 229 234
309 309 309 310 313 315 317 317 315 316 316 314 311 311 309 304 299 299 299 295 280 272 259 250 244 240 235 225 223 218 228 222 222 222 220 220 218 216 216 219 223 224 232
304 305 306 306 307 310 312 311 314 314 313 311 308 305 306 301 296 291 289 287 278 266 263 254 246 238 230 220 212 205 220 218 220 224 223 218 214 210 211 211 215 222 230
304 305 304 302 304 306 306 306 308 309 307 305 304 305 302 299 290 284 283 278 273 272 261 254 244 238 226 214 211 202 214 222 218 218 221 213 207 206 208 208 212 222 227
300 300 298 298 299 302 302 302 303 303 301 300 300 300 298 295 289 283 277 277 272 270 269 263 255 243 231 221 212 205 208 216 215 203 204 205 207 206 206 206 214 219 227
299 295 295 295 297 298 299 300 300 301 300 296 295 295 294 290 283 281 282 271 273 270 268 266 262 258 252 241 220 213 209 216 216 201 201 202 205 210 207 208 212 216 224